Weather History for Birmingham, AL

Change the Weather History Date:

Wednesday, February 20, 2013

  Actual Average Record
Temperature  
Mean Temperature 37 °F 49 °F  
Max Temperature 45 °F 60 °F 78 °F (1986)
Min Temperature 28 °F 38 °F 16 °F (1958)
Degree Days  
Heating Degree Days 28 16  
Month to date heating degree days 384 367  
Since 1 July heating degree days 1866 2072  
Moisture  
Dew Point 20 °F    
Average Humidity 55    
Maximum Humidity 85    
Minimum Humidity 25    
Precipitation  
Precipitation 0.00 in 0.17 in 2.99 in (1961)
Month to date precipitation 3.05 3.18  
Year to date precipitation 11.43 8.02  
Snow  
Snow 0.00 in 0.00 in - ()
Month to date snowfall T 0.1  
Since 1 July snowfall 2.1 0.8  
Snow Depth 0.00 in    
Sea Level Pressure  
Sea Level Pressure 30.24 in    
Wind  
Wind Speed 4 mph (North)    
Max Wind Speed 16 mph    
Max Gust Speed 25 mph    
Visibility 10 miles    
Events      
T = Trace of Precipitation, MM = Missing Value Source: NWS Daily Summary

Daily Weather History Graph

Daily Weather History Graph

Search for Another Location

Airport:

Trip Planner

Search our weather history database for the weather conditions in past years. The results will help you decide how hot, cold, wet, or windy it might be!

Date:

Astronomy

Feb. 20, 2013 Rise Set
Actual Time 6:25 AM CST 5:36 PM CST
Civil Twilight 6:00 AM CST 6:01 PM CST
Nautical Twilight 5:31 AM CST 6:30 PM CST
Astronomical Twilight 5:02 AM CST 6:59 PM CST
Moon 1:05 PM CST (2/20) 2:36 AM CST (2/20)
Length of Visible Light 12h 01m
Length of Day
11h 10m
Waxing Gibbous, 76% of the Moon is Illuminated
Feb 20
Waxing Gibbous
Feb 25
Full
Mar 4
Last Quarter
Mar 11
New
Mar 19
First Quarter

Hourly Weather History & Observations

Time (CST) Temp. Windchill Dew Point Humidity Pressure Visibility Wind Dir Wind Speed Gust Speed Precip Events Conditions
12:53 AM 32.0 °F - 24.1 °F 73% 30.27 in 10.0 mi Calm Calm - N/A   Clear
1:53 AM 32.0 °F - 24.1 °F 73% 30.24 in 10.0 mi Calm Calm - N/A   Clear
2:53 AM 30.0 °F - 25.0 °F 82% 30.23 in 10.0 mi Calm Calm - N/A   Clear
3:53 AM 30.0 °F - 25.0 °F 82% 30.24 in 10.0 mi Calm Calm - N/A   Clear
4:53 AM 30.0 °F - 25.0 °F 82% 30.27 in 10.0 mi Calm Calm - N/A   Clear
5:53 AM 28.9 °F - 25.0 °F 85% 30.27 in 10.0 mi Calm Calm - N/A   Clear
6:53 AM 28.4 °F 24.6 °F 24.8 °F 86% 30.25 in 10.0 mi NNE 3.5 mph - N/A   Clear
7:53 AM 36.0 °F 29.6 °F 24.1 °F 62% 30.27 in 10.0 mi NNE 8.1 mph - N/A   Clear
8:53 AM 42.1 °F 37.7 °F 17.1 °F 37% 30.27 in 10.0 mi NNE 6.9 mph - N/A   Clear
9:53 AM 42.1 °F 34.9 °F 16.0 °F 35% 30.28 in 10.0 mi North 13.8 mph - N/A   Clear
10:53 AM 42.8 °F 37.0 °F 15.8 °F 34% 30.29 in 10.0 mi NNW 10.4 mph - N/A   Clear
11:53 AM 43.0 °F 38.8 °F 15.1 °F 32% 30.27 in 10.0 mi NNW 6.9 mph - N/A   Scattered Clouds
12:53 PM 45.0 °F 40.1 °F 10.0 °F 24% 30.26 in 10.0 mi North 9.2 mph - N/A   Mostly Cloudy
1:53 PM 43.0 °F 36.4 °F 12.9 °F 30% 30.25 in 10.0 mi North 12.7 mph - N/A   Overcast
2:53 PM 43.0 °F 38.2 °F 12.9 °F 30% 30.27 in 10.0 mi North 8.1 mph - N/A   Overcast
3:53 PM 43.0 °F 37.2 °F 15.1 °F 32% 30.18 in 10.0 mi NE 10.4 mph - N/A   Overcast
4:53 PM 44.1 °F - 12.9 °F 28% 30.19 in 10.0 mi Calm Calm - N/A   Scattered Clouds
5:53 PM 41.0 °F 36.4 °F 19.0 °F 41% 30.21 in 10.0 mi North 6.9 mph - N/A   Scattered Clouds
6:53 PM 39.2 °F - 21.2 °F 49% 30.19 in 10.0 mi Calm Calm - N/A   Partly Cloudy
7:53 PM 39.0 °F 35.7 °F 24.1 °F 55% 30.19 in 10.0 mi NE 4.6 mph - N/A   Partly Cloudy
8:53 PM 37.9 °F - 23.0 °F 55% 30.22 in 10.0 mi Calm Calm - N/A   Partly Cloudy
9:53 PM 35.6 °F - 24.8 °F 65% 30.21 in 10.0 mi Calm Calm - N/A   Partly Cloudy
10:53 PM 35.1 °F - 23.0 °F 61% 30.20 in 10.0 mi Calm Calm - N/A   Partly Cloudy
11:53 PM 34.0 °F 31.0 °F 24.1 °F 67% 30.18 in 10.0 mi East 3.5 mph - N/A   Clear